• In Hungary
  • List of Countries
  • For 7 days
  • Water Temperature
  • Satellite Maps
  • Weather Map
  • News
  • Weather Widgets
  • user-avatar
    Login

    Hourly Weather Tibissa

    Today, 22 January, Monday

    Time Temperature Precipitation Wind Pressure Humidity
    00:00 +7°C° 0 mm 9 mps 687 mmHg 75%
    01:00 +7°C° 0 mm 8 mps 687 mmHg 73%
    02:00 +7°C° 0 mm 9 mps 687 mmHg 74%
    03:00 +7°C° 0 mm 9 mps 687 mmHg 74%
    04:00 +7°C° 0 mm 10 mps 687 mmHg 74%
    05:00 +7°C° 0 mm 9 mps 688 mmHg 76%
    06:00 +6°C° 0 mm 8 mps 688 mmHg 77%
    07:00 +6°C° 0 mm 8 mps 688 mmHg 78%
    08:00 +7°C° 0 mm 8 mps 688 mmHg 73%
    09:00 +9°C° 0 mm 8 mps 689 mmHg 67%
    10:00 +11°C° 0 mm 8 mps 689 mmHg 62%
    11:00 +12°C° 0 mm 9 mps 690 mmHg 58%
    12:00 +13°C° 0 mm 9 mps 690 mmHg 54%
    13:00 +14°C° 0 mm 10 mps 690 mmHg 50%
    14:00 +14°C° 0 mm 10 mps 690 mmHg 51%
    15:00 +15°C° 0 mm 9 mps 690 mmHg 52%
    16:00 +15°C° 0 mm 9 mps 689 mmHg 53%
    17:00 +12°C° 0 mm 8 mps 689 mmHg 60%
    18:00 +11°C° 0 mm 7 mps 689 mmHg 66%
    19:00 +10°C° 0 mm 5 mps 689 mmHg 72%
    20:00 +9°C° 0 mm 5 mps 689 mmHg 73%
    21:00 +9°C° 0 mm 5 mps 689 mmHg 74%
    22:00 +8°C° 0 mm 5 mps 689 mmHg 75%
    23:00 +8°C° 0 mm 4 mps 689 mmHg 74%

    Tomorrow, 23 January, Tuesday

    Time Temperature Precipitation Wind Pressure Humidity
    00:00 +8°C° 0 mm 4 mps 689 mmHg 73%
    01:00 +8°C° 0 mm 4 mps 689 mmHg 72%
    02:00 +8°C° 0 mm 4 mps 689 mmHg 72%
    03:00 +7°C° 0 mm 4 mps 689 mmHg 71%
    04:00 +7°C° 0 mm 4 mps 689 mmHg 71%
    05:00 +7°C° 0 mm 4 mps 689 mmHg 72%
    06:00 +7°C° 0 mm 4 mps 689 mmHg 72%
    07:00 +6°C° 0 mm 4 mps 689 mmHg 73%
    08:00 +8°C° 0 mm 5 mps 689 mmHg 67%
    09:00 +9°C° 0 mm 6 mps 690 mmHg 61%
    10:00 +11°C° 0 mm 7 mps 690 mmHg 56%
    11:00 +12°C° 0 mm 7 mps 690 mmHg 53%
    12:00 +14°C° 0 mm 7 mps 690 mmHg 50%
    13:00 +15°C° 0 mm 7 mps 691 mmHg 47%
    14:00 +15°C° 0 mm 7 mps 690 mmHg 47%
    15:00 +15°C° 0 mm 6 mps 690 mmHg 47%
    16:00 +15°C° 0 mm 6 mps 690 mmHg 47%
    17:00 +13°C° 0 mm 5 mps 690 mmHg 54%
    18:00 +12°C° 0 mm 4 mps 690 mmHg 61%
    19:00 +10°C° 0 mm 3 mps 690 mmHg 68%
    20:00 +10°C° 0 mm 2 mps 691 mmHg 73%
    21:00 +9°C° 0 mm 2 mps 691 mmHg 78%
    22:00 +9°C° 0 mm 1 mps 691 mmHg 83%
    23:00 +9°C° 0 mm 1 mps 691 mmHg 84%

    Day after tomorrow, 24 January, Wednesday

    Time Temperature Precipitation Wind Pressure Humidity
    00:00 +9°C° 0 mm 1 mps 691 mmHg 86%
    01:00 +8°C° 0 mm 1 mps 691 mmHg 88%
    02:00 +8°C° 0 mm 1 mps 690 mmHg 88%
    03:00 +8°C° 0 mm 1 mps 690 mmHg 88%
    04:00 +7°C° 0 mm 1 mps 690 mmHg 89%
    05:00 +7°C° 0 mm 1 mps 690 mmHg 89%
    06:00 +7°C° 0 mm 1 mps 690 mmHg 89%
    07:00 +6°C° 0 mm 1 mps 690 mmHg 89%
    08:00 +8°C° 0 mm 1 mps 691 mmHg 82%
    09:00 +9°C° 0 mm 1 mps 692 mmHg 75%
    10:00 +11°C° 0 mm 1 mps 692 mmHg 69%
    11:00 +12°C° 0 mm 1 mps 692 mmHg 62%
    12:00 +13°C° 0 mm 1 mps 692 mmHg 56%
    13:00 +14°C° 0 mm 1 mps 692 mmHg 50%
    14:00 +14°C° 0 mm 1 mps 692 mmHg 49%
    15:00 +15°C° 0 mm 2 mps 692 mmHg 47%
    16:00 +15°C° 0 mm 2 mps 692 mmHg 46%
    17:00 +14°C° 0 mm 2 mps 692 mmHg 51%
    18:00 +13°C° 0 mm 2 mps 692 mmHg 56%
    19:00 +10°C° 0 mm 2 mps 692 mmHg 62%
    20:00 +10°C° 0 mm 2 mps 692 mmHg 65%
    21:00 +9°C° 0 mm 2 mps 692 mmHg 68%
    22:00 +9°C° 0 mm 2 mps 692 mmHg 70%
    23:00 +8°C° 0 mm 2 mps 692 mmHg 73%

    25 January, Thursday

    Time Temperature Precipitation Wind Pressure Humidity
    00:00 +8°C° 0 mm 2 mps 691 mmHg 76%
    01:00 +7°C° 0 mm 2 mps 691 mmHg 79%
    02:00 +7°C° 0 mm 2 mps 691 mmHg 80%
    03:00 +6°C° 0 mm 2 mps 691 mmHg 82%
    04:00 +6°C° 0 mm 2 mps 690 mmHg 84%
    05:00 +6°C° 0 mm 2 mps 690 mmHg 85%
    06:00 +6°C° 0 mm 2 mps 690 mmHg 86%
    07:00 +5°C° 0 mm 2 mps 690 mmHg 87%
    08:00 +7°C° 0 mm 2 mps 691 mmHg 80%
    09:00 +8°C° 0 mm 2 mps 691 mmHg 73%
    10:00 +10°C° 0 mm 3 mps 692 mmHg 66%
    11:00 +11°C° 0 mm 3 mps 692 mmHg 60%
    12:00 +12°C° 0 mm 4 mps 691 mmHg 54%
    13:00 +13°C° 0 mm 4 mps 691 mmHg 48%
    14:00 +13°C° 0 mm 4 mps 691 mmHg 47%
    15:00 +14°C° 0 mm 4 mps 690 mmHg 47%
    16:00 +14°C° 0 mm 4 mps 690 mmHg 46%
    17:00 +12°C° 0 mm 4 mps 689 mmHg 53%
    18:00 +11°C° 0 mm 4 mps 689 mmHg 60%
    19:00 +10°C° 0 mm 3 mps 689 mmHg 66%
    20:00 +9°C° 0 mm 3 mps 689 mmHg 70%
    21:00 +8°C° 0 mm 3 mps 689 mmHg 75%
    22:00 +8°C° 0 mm 3 mps 689 mmHg 79%
    23:00 +7°C° 0 mm 3 mps 689 mmHg 81%

    26 January, Friday

    Time Temperature Precipitation Wind Pressure Humidity
    00:00 +7°C° 0 mm 3 mps 689 mmHg 84%
    01:00 +7°C° 0 mm 3 mps 688 mmHg 86%
    02:00 +5°C° 0 mm 3 mps 688 mmHg 87%
    03:00 +5°C° 0 mm 3 mps 688 mmHg 87%
    04:00 +5°C° 0 mm 3 mps 687 mmHg 88%
    05:00 +5°C° 0 mm 3 mps 687 mmHg 88%
    06:00 +5°C° 0 mm 3 mps 687 mmHg 88%
    07:00 +4°C° 0 mm 3 mps 687 mmHg 89%
    08:00 +7°C° 0 mm 3 mps 687 mmHg 81%
    09:00 +7°C° 0 mm 4 mps 687 mmHg 74%
    10:00 +10°C° 0 mm 4 mps 688 mmHg 66%
    11:00 +10°C° 0 mm 5 mps 688 mmHg 59%
    12:00 +13°C° 0 mm 5 mps 687 mmHg 52%
    13:00 +14°C° 0 mm 6 mps 687 mmHg 45%
    14:00 +14°C° 0 mm 6 mps 687 mmHg 44%
    15:00 +14°C° 0 mm 5 mps 686 mmHg 44%
    16:00 +14°C° 0 mm 5 mps 686 mmHg 43%
    17:00 +13°C° 0 mm 5 mps 686 mmHg 49%
    18:00 +11°C° 0 mm 4 mps 686 mmHg 55%
    19:00 +10°C° 0 mm 3 mps 685 mmHg 61%
    20:00 +9°C° 0 mm 3 mps 685 mmHg 63%
    21:00 +9°C° 0 mm 3 mps 685 mmHg 66%
    22:00 +8°C° 0 mm 3 mps 685 mmHg 69%
    23:00 +8°C° 0 mm 3 mps 685 mmHg 70%

    27 January, Saturday

    Time Temperature Precipitation Wind Pressure Humidity
    00:00 +8°C° 0 mm 3 mps 685 mmHg 71%
    01:00 +8°C° 0 mm 3 mps 685 mmHg 72%
    02:00 +7°C° 0 mm 3 mps 684 mmHg 73%
    03:00 +7°C° 0 mm 2 mps 684 mmHg 75%
    04:00 +6°C° 0 mm 2 mps 684 mmHg 77%
    05:00 +6°C° 0 mm 2 mps 684 mmHg 78%
    06:00 +6°C° 0 mm 2 mps 683 mmHg 80%
    07:00 +5°C° 0 mm 2 mps 683 mmHg 81%
    08:00 +7°C° 0 mm 2 mps 684 mmHg 75%
    09:00 +8°C° 0 mm 2 mps 684 mmHg 68%
    10:00 +10°C° 0 mm 3 mps 685 mmHg 61%
    11:00 +10°C° 0 mm 4 mps 684 mmHg 56%
    12:00 +10°C° 0 mm 5 mps 684 mmHg 51%
    13:00 +11°C° 0 mm 6 mps 684 mmHg 47%
    14:00 +11°C° 0 mm 6 mps 684 mmHg 47%
    15:00 +11°C° 0 mm 6 mps 684 mmHg 47%
    16:00 +11°C° 0 mm 7 mps 683 mmHg 47%
    17:00 +10°C° 0.1 mm 6 mps 683 mmHg 51%
    18:00 +9°C° 0.1 mm 6 mps 683 mmHg 55%
    19:00 +8°C° 0.1 mm 6 mps 683 mmHg 59%
    20:00 +8°C° 0 mm 6 mps 684 mmHg 59%
    21:00 +7°C° 0 mm 6 mps 684 mmHg 58%
    22:00 +7°C° 0 mm 6 mps 684 mmHg 58%
    23:00 +5°C° 0 mm 6 mps 684 mmHg 60%
    Show more